Prague, Czech Republic

11:15 PM CEST on October 18, 2017 (GMT +0200)
Ruzyne

Weather History for LKPR - September, 2013

Change the Weather History Date:

Friday, September 6, 2013

  Actual Average Record
Temperature  
Mean Temperature 62 °F -  
Max Temperature 74 °F 64 °F 82 °F (2008)
Min Temperature 51 °F 45 °F 41 °F (1996)
Degree Days  
Heating Degree Days 2    
Growing Degree Days 12 (Base 50)    
Moisture  
Dew Point 52 °F    
Average Humidity 71    
Maximum Humidity 94    
Minimum Humidity 39    
Precipitation  
Precipitation 0.00 in 0.05 in - ()
Sea Level Pressure  
Sea Level Pressure 30.01 in    
Wind  
Wind Speed 6 mph ()    
Max Wind Speed 13 mph    
Max Gust Speed -    
Visibility 6.5 miles    
Events      
Averages and records for this station are not official NWS values.
T = Trace of Precipitation, MM = Missing Value Source: Averaged Metar Reports

Daily Weather History Graph

Daily Weather History Graph

Search for Another Location

Airport or City:

Trip Planner

Search our weather history database for the weather conditions in past years. The results will help you decide how hot, cold, wet, or windy it might be!

Date:

Astronomy

Sep. 06, 2013 Rise Set
Actual Time 6:25 AM CEST 7:36 PM CEST
Civil Twilight 5:51 AM CEST 8:09 PM CEST
Nautical Twilight 5:11 AM CEST 8:49 PM CEST
Astronomical Twilight 4:28 AM CEST 9:32 PM CEST
Moon 7:30 AM CEST (9/6) 7:37 PM CEST (9/6)
Length of Visible Light 14h 17m
Length of Day
13h 10m
New Moon, 1% of the Moon is Illuminated
Sep 6
New Moon
Sep 12
First Quarter
Sep 19
Full
Sep 27
Last Quarter
Oct 5
New

Hourly Weather History & Observations

Time (CEST) Temp. Dew Point Humidity Pressure Visibility Wind Dir Wind Speed Gust Speed Precip Events Conditions
12:00 AM 59.0 °F 53.6 °F 82% 30.04 in - East 9.2 mph - N/A   Clear
12:30 AM 57.2 °F 53.6 °F 88% 30.04 in - East 8.1 mph - N/A   Clear
1:00 AM 57.2 °F 53.6 °F 88% 30.04 in - ESE 6.9 mph - N/A   Clear
1:30 AM 55.4 °F 51.8 °F 88% 30.04 in - SE 4.6 mph - N/A   Clear
2:00 AM 53 °F 51 °F 88% 30.04 in 19 mi SE 4.5 mph - -  
2:00 AM 53.6 °F 50.0 °F 88% 30.04 in - South 3.5 mph - N/A   Clear
2:30 AM 55.4 °F 51.8 °F 88% 30.04 in - Variable 2.3 mph - N/A   Clear
3:00 AM 57.2 °F 53.6 °F 88% 30.04 in - Variable 2.3 mph - N/A   Clear
3:30 AM 55.4 °F 51.8 °F 88% 30.04 in - ESE 4.6 mph - N/A   Clear
4:00 AM 55.4 °F 51.8 °F 88% 30.01 in 6.2 mi East 4.6 mph - N/A   Partly Cloudy
4:30 AM 51.8 °F 50.0 °F 94% 30.01 in - Variable 2.3 mph - N/A   Clear
5:00 AM 53.6 °F 51.8 °F 94% 30.01 in - East 4.6 mph - N/A   Clear
5:30 AM 53.6 °F 51.8 °F 94% 30.01 in - ESE 5.8 mph - N/A   Clear
6:00 AM 51.8 °F 50.0 °F 94% 30.01 in 5.6 mi ESE 4.6 mph - N/A   Unknown
6:30 AM 53.6 °F 51.8 °F 94% 30.01 in 4.3 mi ESE 4.6 mph - N/A   Unknown
7:00 AM 53.6 °F 51.8 °F 94% 30.01 in 3.7 mi East 5.8 mph - N/A   Unknown
7:30 AM 55.4 °F 53.6 °F 94% 30.01 in 3.1 mi ENE 5.8 mph - N/A   Mist
8:00 AM 57 °F 53 °F 84% 30.03 in 2 mi ENE 6.7 mph - -   Mist
8:00 AM 57.2 °F 53.6 °F 88% 30.04 in 2.5 mi North 3.5 mph - N/A   Mist
8:22 AM 57.2 °F 53.6 °F 88% 30.04 in 3.7 mi NNE 3.5 mph - N/A   Unknown
8:30 AM 59.0 °F 53.6 °F 82% 30.04 in 4.3 mi NE 3.5 mph - N/A   Unknown
9:00 AM 59.0 °F 53.6 °F 82% 30.04 in 5.0 mi ENE 6.9 mph - N/A   Unknown
9:30 AM 60.8 °F 53.6 °F 77% 30.04 in - East 6.9 mph - N/A   Clear
10:00 AM 62.6 °F 53.6 °F 72% 30.04 in - ENE 6.9 mph - N/A   Clear
10:30 AM 64.4 °F 53.6 °F 68% 30.04 in - East 6.9 mph - N/A   Clear
11:00 AM 66.2 °F 53.6 °F 64% 30.04 in - East 6.9 mph - N/A   Clear
11:30 AM 68.0 °F 53.6 °F 60% 30.04 in - ESE 6.9 mph - N/A   Clear
12:00 PM 68.0 °F 53.6 °F 60% 30.01 in 6.2 mi ESE 8.1 mph - N/A   Partly Cloudy
12:30 PM 69.8 °F 55.4 °F 60% 30.01 in 6.2 mi East 8.1 mph - N/A   Partly Cloudy
1:00 PM 69.8 °F 55.4 °F 60% 30.01 in 6.2 mi East 10.4 mph - N/A   Partly Cloudy
1:30 PM 71.6 °F 55.4 °F 57% 30.01 in - ESE 10.4 mph - N/A   Clear
2:00 PM 73 °F 53 °F 39% 29.96 in 19 mi ESE 11.2 mph - -   Scattered Clouds
2:00 PM 73.4 °F 53.6 °F 50% 29.98 in - SE 11.5 mph - N/A   Clear
2:30 PM 73.4 °F 51.8 °F 47% 29.98 in - East 11.5 mph - N/A   Clear
3:00 PM 73.4 °F 51.8 °F 47% 29.98 in - ESE 11.5 mph - N/A   Clear
3:30 PM 75.2 °F 51.8 °F 44% 29.98 in - SE 12.7 mph - N/A   Clear
4:00 PM 73.4 °F 51.8 °F 47% 29.98 in - ESE 11.5 mph - N/A   Clear
4:30 PM 73.4 °F 53.6 °F 50% 29.98 in - SE 11.5 mph - N/A   Clear
5:00 PM 73.4 °F 51.8 °F 47% 29.98 in - ESE 12.7 mph - N/A   Clear
5:30 PM 73.4 °F 53.6 °F 50% 29.98 in - ESE 11.5 mph - N/A   Clear
6:00 PM 73.4 °F 53.6 °F 50% 29.98 in - ESE 10.4 mph - N/A   Clear
6:30 PM 71.6 °F 51.8 °F 50% 29.98 in - ESE 9.2 mph - N/A   Clear
7:00 PM 69.8 °F 51.8 °F 53% 29.98 in - ESE 10.4 mph - N/A   Clear
7:30 PM 69.8 °F 51.8 °F 53% 29.98 in - ESE 9.2 mph - N/A   Clear
8:00 PM 65 °F 51 °F 52% 29.96 in 28 mi East 6.7 mph - -  
8:00 PM 66.2 °F 51.8 °F 60% 29.98 in - East 8.1 mph - N/A   Clear
8:30 PM 64.4 °F 51.8 °F 64% 29.98 in - East 6.9 mph - N/A   Clear
9:00 PM 62.6 °F 51.8 °F 68% 30.01 in - ESE 6.9 mph - N/A   Clear
9:30 PM 62.6 °F 51.8 °F 68% 30.01 in - ESE 8.1 mph - N/A   Clear
10:00 PM 60.8 °F 51.8 °F 72% 30.01 in - ESE 8.1 mph - N/A   Clear
10:30 PM 59.0 °F 50.0 °F 72% 30.01 in - SE 9.2 mph - N/A   Clear
11:00 PM 59.0 °F 50.0 °F 72% 30.01 in - SE 10.4 mph - N/A   Clear
11:30 PM 57.2 °F 50.0 °F 77% 30.04 in - SE 10.4 mph - N/A   Clear